Location: Namasale
(1.5000°N, 32.6167°E)
Time: 09:11:07
(UTC+00:00)

Vanguard 2 Rocket - All Passes

Search period start: 19 April 2021 00:00
Search period end: 29 April 2021 00:00
Orbit: 553 x 3326 km, 32.9° (Epoch: 18 April)

Date Brightness Start Highest point End Pass type
(mag) Time Alt. Az. Time Alt. Az. Time Alt. Az.
19 Apr - 06:40:49 10° SSW 06:49:52 49° SE 07:05:14 10° ENE daylight
19 Apr - 08:53:40 10° WSW 09:06:13 65° NNW 09:25:45 10° NE daylight
19 Apr - 11:12:00 10° WNW 11:26:39 32° NNW 11:43:34 10° NE daylight
19 Apr - 13:37:34 10° NW 13:50:32 20° N 14:02:05 10° NE daylight
19 Apr - 16:01:10 10° NNW 16:13:37 23° NNE 16:22:36 10° ENE visible
19 Apr - 18:19:28 10° NW 18:32:10 48° NNE 18:39:24 10° E visible
19 Apr - 20:38:01 10° WNW 20:46:20 41° SW 20:51:27 10° SSE visible
20 Apr - 05:42:27 10° SSW 05:49:36 30° SE 06:00:50 10° E daylight
20 Apr - 07:53:42 10° WSW 08:04:30 84° NW 08:22:59 10° NE daylight
20 Apr - 10:09:41 10° W 10:23:24 39° NNW 10:41:30 10° NE daylight
20 Apr - 12:32:41 10° NW 12:46:22 22° N 12:59:52 10° NE daylight
20 Apr - 14:57:42 10° NW 15:10:38 21° N 15:20:47 10° NE daylight
20 Apr - 17:17:09 10° NW 17:30:58 37° NNE 17:39:24 10° E visible
20 Apr - 19:35:27 10° WNW 19:46:43 73° SW 19:52:55 10° SE visible
21 Apr - 04:45:09 10° S 04:49:35 16° SE 04:55:24 10° ESE daylight
21 Apr - 06:54:21 10° SW 07:03:30 72° SE 07:19:50 10° ENE daylight
21 Apr - 09:08:26 10° W 09:20:44 48° NNW 09:39:09 10° NE daylight
21 Apr - 11:28:39 10° WNW 11:42:19 25° NNW 11:57:31 10° NE daylight
21 Apr - 13:53:44 10° NW 14:06:57 20° N 14:18:20 10° NE daylight
21 Apr - 16:14:34 10° NW 16:29:05 31° NNE 16:38:46 10° ENE visible
21 Apr - 18:32:57 10° NW 18:46:32 75° NNE 18:53:54 10° ESE visible
21 Apr - 20:53:30 10° W 20:59:54 22° SW 21:04:22 10° S visible
22 Apr - 05:55:34 10° SSW 06:03:08 47° SE 06:16:17 10° ENE daylight
22 Apr - 08:08:02 10° WSW 08:18:42 61° NNW 08:36:35 10° NE daylight
22 Apr - 10:25:42 10° WNW 10:38:42 30° NNW 10:55:03 10° NE daylight
22 Apr - 12:49:32 10° NW 13:02:47 20° N 13:15:25 10° NE daylight
22 Apr - 15:11:44 10° NW 15:26:29 27° NNE 15:37:22 10° ENE daylight
22 Apr - 17:30:25 10° NW 17:45:41 55° NNE 17:54:22 10° ESE visible
22 Apr - 19:50:01 10° WNW 20:00:22 43° SW 20:06:29 10° SSE visible
23 Apr - 04:57:25 10° SSW 05:03:16 27° SE 05:12:16 10° E daylight
23 Apr - 07:08:18 10° WSW 07:17:23 80° NW 07:33:48 10° NE daylight
23 Apr - 09:23:51 10° W 09:35:40 35° NNW 09:52:31 10° NE daylight
23 Apr - 11:45:35 10° NW 11:58:29 22° N 12:12:16 10° NE daylight
23 Apr - 14:08:38 10° NW 14:23:09 24° NNE 14:35:05 10° ENE daylight
23 Apr - 16:27:50 10° NW 16:44:08 43° NNE 16:54:15 10° E visible
23 Apr - 18:46:54 10° WNW 19:00:29 71° SW 19:07:53 10° SE visible
23 Apr - 21:11:05 10° WSW 21:13:35 12° SW 21:15:47 10° SSW night (unlit)
24 Apr - 04:00:42 10° SSE 04:03:34 13° SE 04:07:00 10° ESE daylight
24 Apr - 06:09:07 10° SW 06:16:47 73° SE 06:30:50 10° ENE daylight
24 Apr - 08:22:54 10° W 08:33:19 43° NNW 08:49:56 10° NE daylight
24 Apr - 10:42:18 10° WNW 10:54:30 24° NNW 11:09:06 10° NE daylight
24 Apr - 13:05:23 10° NW 13:19:13 22° N 13:31:57 10° NE daylight
24 Apr - 15:25:14 10° NW 15:41:53 35° NNE 15:53:24 10° E daylight
24 Apr - 17:43:58 10° NW 17:59:58 81° NE 18:08:46 10° ESE visible
24 Apr - 20:05:31 10° W 20:13:55 25° SW 20:19:29 10° SSE visible
25 Apr - 05:10:29 10° SSW 05:16:48 45° SE 05:27:41 10° ENE daylight
25 Apr - 07:22:43 10° WSW 07:31:41 55° NNW 07:47:20 10° NE daylight
25 Apr - 09:39:54 10° WNW 09:51:06 27° NNW 10:06:04 10° NE daylight
25 Apr - 12:02:07 10° NW 12:14:57 21° N 12:28:09 10° NE daylight
25 Apr - 14:22:39 10° NW 14:38:56 30° NNE 14:51:39 10° ENE daylight
25 Apr - 16:41:11 10° NW 16:58:45 61° NNE 17:09:05 10° ESE visible
25 Apr - 19:01:30 10° WNW 19:14:06 45° SW 19:21:24 10° SSE visible
26 Apr - 04:12:29 10° S 04:17:14 24° SE 04:24:11 10° E daylight
26 Apr - 06:23:08 10° WSW 06:30:44 74° NNW 06:44:45 10° NE daylight
26 Apr - 08:38:24 10° WNW 08:48:23 31° NNW 09:03:13 10° NE daylight
26 Apr - 10:59:05 10° NW 11:10:44 20° N 11:24:04 10° NE daylight
26 Apr - 13:20:06 10° NW 13:35:22 25° NNE 13:48:51 10° ENE daylight
26 Apr - 15:38:35 10° NW 15:56:49 48° NNE 16:08:46 10° E daylight
26 Apr - 17:57:58 10° WNW 18:13:51 70° SW 18:22:41 10° SE visible
26 Apr - 20:22:35 10° WSW 20:27:36 15° SW 20:31:34 10° S visible
27 Apr - 03:17:43 10° SE 03:17:44 10° SE 03:17:45 10° SE visible
27 Apr - 05:24:04 10° SW 05:30:28 76° SE 05:42:11 10° ENE daylight
27 Apr - 07:37:42 10° W 07:46:25 38° NNW 08:00:36 10° NE daylight
27 Apr - 09:56:31 10° NW 10:06:58 21° N 10:20:09 10° NE daylight
27 Apr - 12:17:39 10° NW 12:31:21 22° N 12:44:59 10° NE daylight
27 Apr - 14:36:11 10° NW 14:54:13 39° NNE 15:07:37 10° E daylight
27 Apr - 16:54:48 10° NW 17:12:56 85° NE 17:23:24 10° ESE visible
27 Apr - 19:17:01 10° W 19:27:39 29° SW 19:34:29 10° SSE visible
28 Apr - 04:25:30 10° SSW 04:30:48 43° SE 04:39:35 10° ENE daylight
28 Apr - 06:37:39 10° W 06:45:07 48° NNW 06:58:13 10° NE daylight
28 Apr - 08:54:35 10° WNW 09:03:53 23° NNW 09:16:41 10° NNE daylight
28 Apr - 11:15:19 10° NW 11:27:10 20° N 11:40:16 10° NE daylight
28 Apr - 13:34:02 10° NW 13:51:02 32° NNE 14:05:27 10° ENE daylight
28 Apr - 15:51:59 10° NW 16:11:19 66° NNE 16:23:30 10° ESE visible
28 Apr - 18:12:36 10° WNW 18:27:27 47° SW 18:36:11 10° SSE visible
